Location: St. Louis
(38.6270°N, 90.1994°W)
Time: 11:51:23
(UTC-06:00)

S-56A Canister/Altair - Pass Details

Date: 04 December 2021
Orbit: 634 x 2499 km, 38.9° (Epoch: 26 January)

Event Time Altitude Azimuth Distance (km) Brightness Sun altitude
Rises 03:07:50 0° 277° (W) 4,250 - -45.2°
Reaches altitude 10° 03:11:11 10° 277° (W) 2,992 - -44.5°
Maximum altitude 03:18:03 85° 191° (S) 844 - -43.2°
Exits shadow 03:22:51 11° 103° (ESE) 2,122 10.4 -42.2°
Drops below altitude 10° 03:22:57 10° 103° (ESE) 2,159 10.4 -42.2°
Sets 03:25:02 0° 102° (ESE) 2,989 11.3 -41.8°
